Regional Weather Roundup
Issued by NWS

Home | Current Version | Previous Version | Text Only | Print | Product List | Glossary Off
Versions: 1 2 3 4 5 6 7 8 9 10 11 12 13 14 15 16 17 18 19 20 21 22 23 24 25 26 27 28 29 30 31 32 33 34 35 36 37 38 39 40 41 42 43 44 45 46 47 48 49 50

000
ASUS43 KMKX 311200
RWRWI

WISCONSIN REGIONAL WEATHER ROUNDUP
NATIONAL WEATHER SERVICE MILWAUKEE/SULLIVAN WI
700 AM CDT THU JUL 31 2014

NOTE: "FAIR" INDICATES FEW OR NO CLOUDS BELOW 12,000 FEET WITH NO
SIGNIFICANT WEATHER AND/OR OBSTRUCTIONS TO VISIBILITY.

WIZ001-002-006>008-014>016-023>028-311300-
NORTHWEST WISCONSIN

CITY           SKY/WX    TMP DP  RH WIND       PRES   REMARKS
SUPERIOR ARPT  SUNNY     56  55  97 SW5       29.98S
ASHLAND        SUNNY     57  55  93 SW5       29.98S
6HR MIN TEMP:  54; 6HR MAX TEMP:  59;

HAYWARD        MOSUNNY   54  53  97 CALM      30.01R
6HR MIN TEMP:  52; 6HR MAX TEMP:  58;

SIREN          SUNNY     59  57  92 CALM      30.02S
RICE LAKE      SUNNY     56  55  96 CALM      30.03S
6HR MIN TEMP:  54; 6HR MAX TEMP:  60; 6HR PCP:  0.01;

LADYSMITH      MOSUNNY   55  54  97 CALM      30.02S FOG
EAU CLAIRE     NOT AVBL
MENOMONIE      SUNNY     61  57  88 CALM      30.02S
6HR MIN TEMP:  59; 6HR MAX TEMP:  64;

NEW RICHMOND   CLEAR     57  56  97 CALM      30.04R
OSCEOLA        CLEAR     55  55 100 CALM      30.06R
$$

WIZ003>005-009-010-017-018-311300-
NORTH CENTRAL WISCONSIN

CITY           SKY/WX    TMP DP  RH WIND       PRES   REMARKS
WOODRUFF       HAZE      57  52  85 CALM      30.00R VSB<1/4
RHINELANDER    FOG       56  55  97 W3        30.00S VSB<1/4
6HR MIN TEMP:  48; 6HR MAX TEMP:  56;

EAGLE RIVER    FOG       48  48 100 CALM      29.99R VSB<1/4
LAND O LAKES   FOG       46  46 100 CALM      29.99S VSB 1/4
PHILLIPS       FOG       56  56 100 CALM      30.00S VSB<1/4
6HR MIN TEMP:  52; 6HR MAX TEMP:  58;

TOMAHAWK       FOG       46  46  97 CALM      30.01R VSB<1/4
MEDFORD        SUNNY     55  55 100 CALM      30.01R FOG
MERRILL        FOG       49  49 100 CALM      30.00S VSB<1/4
$$

WIZ029-030-035-036-043>047-311300-
CENTRAL WISCONSIN

CITY           SKY/WX    TMP DP  RH WIND       PRES   REMARKS
WAUSAU         SUNNY     59  58  96 NW6       29.99R
6HR MIN TEMP:  56; 6HR MAX TEMP:  62;

MOSINEE        SUNNY     57  57 100 W5        30.01S
MARSHFIELD     SUNNY     59  57  93 NW8       30.00S
6HR MIN TEMP:  58; 6HR MAX TEMP:  62;

STEVENS POINT  SUNNY     54  53  97 CALM      30.00S
WAUPACA        SUNNY     61  59  94 CALM      29.99S
6HR MIN TEMP:  59; 6HR MAX TEMP:  63;

WAUTOMA        NOT AVBL
WISC RAPIDS    SUNNY     59  58  96 NW3       30.01S
6HR MIN TEMP:  55; 6HR MAX TEMP:  62; 6HR PCP: TRACE;

CAMP DOUGLAS   NOT AVBL
$$

WIZ011>013-019>022-031-037>040-048>050-311300-
NORTHEAST WISCONSIN

CITY           SKY/WX    TMP DP  RH WIND       PRES   REMARKS
ANTIGO         FOG       51  51 100 CALM      30.00S VSB 1/4
STURGEON BAY   SUNNY     57  54  88 CALM      29.97S
6HR MIN TEMP:  55; 6HR MAX TEMP:  61;

GREEN BAY      SUNNY     57  57 100 CALM      29.98R
6HR MIN TEMP:  54; 6HR MAX TEMP:  59;

MANITOWOC      NOT AVBL
APPLETON       MOSUNNY   57  57 100 W8        29.99S
CLINTONVILLE   SUNNY     57  55  94 CALM      29.98F
OSHKOSH        SUNNY     62  58  86 W3        29.98S
6HR MIN TEMP:  58; 6HR MAX TEMP:  63;

$$

WIZ032>034-041-042-053>061-311300-
SOUTHWEST WISCONSIN

CITY           SKY/WX    TMP DP  RH WIND       PRES   REMARKS
LA CROSSE      SUNNY     63  59  87 SE5       30.02S
6HR MIN TEMP:  62; 6HR MAX TEMP:  67;

SPARTA         SUNNY     53  52  97 CALM      30.03S
VIROQUA        FAIR      57  57 100 CALM      30.04S
BOSCOBEL       SUNNY     59  57  93 SW5       30.04S FOG
6HR MIN TEMP:  57; 6HR MAX TEMP:  62;

PRAIRIE DU CHI SUNNY     58  55  91 CALM      30.04S
PLATTEVILLE    FAIR      58  57  96 SW5       30.06R
$$

WIZ056-057-062-063-064-067-068-311300-
SOUTH CENTRAL WISCONSIN

CITY           SKY/WX    TMP DP  RH WIND       PRES   REMARKS
BARABOO/DELLS  SUNNY     58  55  90 CALM      30.02S
LONE ROCK      FOG       59  55  88 CALM      30.03S VSB 1
WATERTOWN      SUNNY     55  54  97 CALM      30.01S
MADISON        SUNNY     64  58  80 CALM      30.01S
6HR MIN TEMP:  63; 6HR MAX TEMP:  67;

MIDDLETON      FAIR      61  58  91 CALM      30.02S
MONROE         SUNNY     61  57  88 W12       30.04R
JANESVILLE     SUNNY     59  55  88 CALM      30.02S
$$

WIZ051-052-058>065-066-070>072-311300-
SOUTHEAST WISCONSIN

CITY           SKY/WX    TMP DP  RH WIND       PRES   REMARKS
MILWAUKEE      MOSUNNY   64  55  72 W6        30.01R
6HR MIN TEMP:  60; 6HR MAX TEMP:  64;

WAUKESHA       MOSUNNY   57  54  88 CALM      30.02S
MILWAUKEE/TIMM PTSUNNY   61  54  77 W3        30.01S
RACINE         MOSUNNY   62  56  80 W7        30.02S
6HR MIN TEMP:  60; 6HR MAX TEMP:  62;

BURLINGTON     SUNNY     56  54  93 SW6       30.02S
KENOSHA        MOSUNNY   61  58  90 SW6       30.02S
6HR MIN TEMP:  56; 6HR MAX TEMP:  61;

FOND DU LAC    SUNNY     60  57  89 SW5       30.00R
6HR MIN TEMP:  56; 6HR MAX TEMP:  62;

SHEBOYGAN      MOSUNNY   59  58  96 CALM      29.99R
6HR MIN TEMP:  55; 6HR MAX TEMP:  59;

WEST BEND      MOSUNNY   59  54  82 SW3       30.00S
JUNEAU         SUNNY     57  54  89 S3        30.02S
$$

LSZ147-162-311300-
LAKE SUPERIOR

STATION/POSITION TIME  TEMP    WIND        PRES    WAVE
                       AIR SEA DIR/SP/G            HT/PER
                 (UTC) (F)     (DEG/KT/KT) (MB)    (FT/S)
W MID LAKE BUOY  1050   50 41  270/  6/  6 1014.0S   0
PORT WING        1100   56     160/  5/  5 1015.2
SAXON HARBOR     1100          180/  4/  6 1014.6S
$$

LMZ867-665-643>646-311300-
LAKE MICHIGAN

STATION/POSITION TIME  TEMP    WIND        PRES    WAVE
                       AIR SEA DIR/SP/G            HT/PER
                 (UTC) (F)     (DEG/KT/KT) (MB)    (FT/S)
N MID LAKE BUOY  1050   55 52  230/  6/  6 1013.6R   1
NORTHPORT PIER   1100   57     260/  3/  5 1014.2S
SISTER BAY       1141   61     340/  7/  8   N/A
KEWAUNEE LAKESHO 1100   56      CALM  /  2 1014.1R
SHEBOYGAN LAKESH 1100   62     260/  6/  7 1015.2R
PORT WASHINGTON  1140   64     280/  7/ 10 1016.3R
ATWATER BUOY     1100   64     260/  8     1016.7R
MILWAUKEE LAKESH 1100   64     280/  9/ 10   N/A
S MID LAKE BUOY  1050   62 60  230/ 12/ 14 1015.6R   1/ 3
KENOSHA   LAKESH 1100   64     250/  6/ 10 1016.3R
$$

TC  - TEMPERATURE IN CELSIUS
VSB - VISIBILITY IN STATUTE MILES
WCI - WIND CHILL INDEX
HX  - HEAT INDEX




USA.gov is the U.S. government's official web portal to all federal, state and local government web resources and services.